2018 Avenue of the Giants Marathon

Humboldt Redwoods State Park
2018-05-06
  • Logo
Starts on: 2018-05-06
Where: Humboldt Redwoods State Park
Categories: Marathon Half Marathon 10k Run/Walk
Female marathon
name bib rank time pace hometown
Sally Keating 161 1 02:57:48.570 06:48 San Diego, CA
Frances Zander 463 2 03:11:12.220 07:18 Boise, ID
Kristine Klotzbach 464 3 03:11:15 07:18 Walnut Creek, CA
Tami Beall 206 4 03:13:38.160 07:24 Arcata, CA
Romi Voorhies 474 5 02:15:38.140 21:50 Marrero, LA
Karen Kidwell 10 5 03:18:57.630 07:36 Eureka, CA
Annie Ciernia 213 6 03:18:59.700 07:36 Davis, CA
Jessica Anies 266 7 03:19:41.500 07:38 Boulder, CO
Megan Smyth 512 8 03:25:30.290 07:51 Dallas, TX
Rachel Cardoza 301 9 03:30:49.490 08:03 Eureka, CA
Audrey Haynes 267 10 03:35:38.990 08:14 Oakland, CA
Beth Rathburn 131 11 03:38:51.700 08:22 Medford, OR
Kay Evans 416 12 03:39:02.420 08:22 Chocowinity, NC
Alicia Mengel 501 13 03:39:39.830 08:24 Mckinleyville, CA
Elizabeth Vaage 228 14 03:42:03.780 08:29 Davis, CA
Erin Orndorf 256 15 03:44:09.280 08:34 Oregon City, OR
Amanda Reynolds 71 16 03:44:54.790 08:36 Arcata, CA
Jodi Sacco 243 17 03:47:00.480 08:40 Dallas, TX
Rose Asquith 216 18 03:47:50.700 08:42 Grass Valley, CA
Katie Collins 109 19 03:51:45.510 08:51 Tempe, AZ
Alejandra Silva 328 20 03:52:02.300 08:52 Salinas, CA
Amanda Lee 472 21 03:52:11.870 08:52 Arcata, CA
Heather Ryan 162 22 03:52:47.620 08:54 Reno, NV
Jamie Henson 38 23 03:53:38.500 08:56 Sacramento, CA
Hayley Swanson 155 24 03:55:02.780 08:59 Livermore, CA
Claire Lucas 516 25 03:55:15.900 08:59 Calgary, Canada, AB
Ebru Kisnak 73 26 03:56:22.320 09:02 Twentynine Palms, CA
Rachel Vogel 494 27 03:56:33.550 09:02 Golden, CO
Jennifer Letulle 210 28 03:56:52.910 09:03 Orinda, CA
Frances Mesa 31 29 03:57:53.340 09:05 Vacaville, CA
Mary Pella-Donnelly 225 30 03:59:02.300 09:08 Chico, CA
Monika Stevens 253 31 03:59:39.370 09:09 Oakland, CA
Sara Dugan 154 32 03:59:52.930 09:10 Castro Valley, CA
Hannah Harter 336 33 04:02:29.780 09:16 Davis, CA
Julia Raffaini 422 34 04:03:23.920 09:18 Paradise, CA
Gibson Trinca 77 35 04:04:40.470 09:21 Paradise, CA
Caroline Carson 302 36 04:04:45.270 09:21 Eureka, CA
Laura Boehme 82 37 04:04:47.550 09:21 Bend, OR
Julia Vasinda 249 38 04:05:00.910 09:22 Portland, OR
Andie Wright 47 39 04:05:52.900 09:24 Portland, OR
Rachel Carl 27 40 04:05:58.900 09:24 Fairfield, CA
Cara Storm 205 41 04:06:00.840 09:24 San Francisco, CA
Patricia Petnicki 28 42 04:06:04.120 09:24 Fairfield, CA
Tania Benitez 323 43 04:06:50.820 09:26 Vacaville, CA
Carolina Swartz 304 44 04:07:22.610 09:27 Fairfield, CA
Suzanne Luke 489 45 04:07:30.800 09:27 Tyler, TX
Kate Larrabure 151 46 04:08:09.890 09:29 Petaluma, CA
Susan Bertilacchi-Green 126 47 04:09:01.980 09:31 Pleasant Hill, CA
Karen Meadows 509 48 04:09:12.300 09:31 Rosemary Beach, FL
Kristina Scheuneman 508 49 04:10:50.210 09:35 Jacksonville, OR
Kimberly Bodutch 40 50 04:12:06.790 09:38 Vacaville, CA
Whitney Olson 505 51 04:12:18.880 09:38 Saint Paul, MN
Suzanne Cox 53 52 04:12:29.360 09:39 Zephyrhills, FL
Constance Levie 134 53 04:14:00.110 09:42 Henderson, NV
Molly Krantz 521 54 04:16:42.620 09:48 Beaverton, OR
Amelia Cain 158 55 04:17:36.300 09:50 Chapel Hill, NC
Kimberly Ward 480 56 04:19:22.220 09:54 Los Angeles, CA
Jennifer Go 337 57 04:19:24.860 09:55 Fremont, CA
Kenda Grover 279 58 04:20:13.800 09:56 Fayetteville, AR
Amy Stoyles 510 59 04:21:30.130 09:59 Freeport, FL
Chanel Ruiz-Bricco 497 60 04:22:36.400 10:02 Santa Rosa, CA
Ruth Cruz 23 61 04:22:38.710 10:02 Stockton, CA
Fay Mac Donnell 6 62 04:22:40.830 10:02 Portland, OR
Karen Narus 264 63 04:22:59.630 10:03 Boise, ID
Yavanna Reynolds 156 64 04:23:34.540 10:04 Davenport, CA
Stephanie Casteel 458 65 04:23:57.520 10:05 Redding, CA
Thalia Hernandez-Duran 21 66 04:24:21.770 10:06 Stanford, CA
Kimberly Phillips 329 67 04:25:40.270 10:09 Solana Beach, CA
Joyce Holz 107 68 04:25:56.300 10:09 Houston, TX
Brooke Weeber 50 69 04:26:53.600 10:12 Portland, OR
Shannon Brayshaw 145 70 04:27:15.210 10:12 Vista, CA
Gabriella Swartz 306 71 04:27:30.160 10:13 Fairfield, CA
Angelica Steinmeier 459 72 04:28:03.630 10:14 Orinda, CA
Joy Toyias 221 73 04:28:13.690 10:15 Fair Oaks, CA
Jennifer Gifford 473 74 04:28:16.560 10:15 Redding, CA
Susie Derenzis 327 75 04:28:23.950 10:15 Solana Beach, CA
Elena Cassell 148 76 04:29:53.350 10:19 Hercules, CA
Amanda Orosco 415 77 04:30:42.350 10:20 Las Vegas, NV
Melissa Huff 30 78 04:32:27.900 10:24 Vacaville, CA
Paula Kaiser 92 79 04:33:54.510 10:28 Fort Collins, CO
Jeanette Sauter 136 80 04:34:01.160 10:28 Bakersfield, CA
Debbie Nicholson 76 81 04:35:24.540 10:31 Windsor, CA
Sabrina Skoog 79 82 04:36:09.620 10:33 Ashland, OR
Chyon-Hwa Yeh 236 83 04:37:36.600 10:36 Cincinnati, OH
Stephanie Smith 433 84 04:37:53.630 10:37 Healdsburg, CA
Elizabeth Seung 78 85 04:38:07.940 10:37 Los Angeles, CA
Emily Fairfax 63 86 04:38:51.160 10:39 Boulder, CO
Kelsey Wright 17 87 04:38:51.700 10:39 Mesilla, NM
Angelica Aubrey 345 88 04:43:42.470 10:50 Eureka, CA
Kimberly Sanders 260 89 04:43:56.740 10:51 Petaluma, CA
Sadie Smith 132 90 04:45:58.280 10:55 Garden Valley, CA
Cheryl Ricketts 153 91 04:46:40.840 10:57 Anderson, CA
Virginia Unkefer 33 92 04:47:15.450 10:58 Pentwater, MI
Dominique Chevalier 523 93 04:49:01.710 11:02 Healdsburg, CA
Kristina Bazargan-Forward 22 94 04:51:36.650 11:08 San Diego, CA
Natasha Munson 254 95 04:51:45.220 11:09 South Lake Tahoe, CA
Afton Uriarte 261 96 04:53:31.820 11:13 Berkeley, CA
Jill Glover 315 97 04:55:23.720 11:17 Petaluma, CA
Karen Seguin 411 98 04:56:38.880 11:20 West Olive, MI
Linda Wilson 326 99 04:57:35.780 11:22 Placerville, CA
Emily Schaefer 309 100 04:58:37.630 11:24 Santa Rosa, CA

Next Page